This is the latest recevied weather packets stored in our database for station/object EA4IAJ-12. If no packets are shown the sender has not sent any weather packets the latest 10 day(s).
| Time | Temp. | Humidity | Pressure | Rain* | Wind** | Luminosity | Snow |
|---|---|---|---|---|---|---|---|
| 1777883431 | 16.67° C | 100% | 1016.5 hPa | - | - | - | - |
| 1777882530 | 15.56° C | 100% | 1013.1 hPa | - | - | - | - |
| 1777881630 | 14.44° C | 100% | 1009.1 hPa | - | - | - | - |
| 1777880729 | 15° C | 100% | 1011.7 hPa | - | - | - | - |
| 1777879829 | 14.44° C | 100% | 1007.6 hPa | - | - | - | - |
| 1777878928 | 13.89° C | 100% | 1006.7 hPa | - | - | - | - |
| 1777878028 | 14.44° C | 100% | 1008.6 hPa | - | - | - | - |
| 1777877127 | 13.89° C | 100% | 1006.2 hPa | - | - | - | - |
| 1777876227 | 12.22° C | 100% | 998.8 hPa | - | - | - | - |
| 1777875326 | 10.56° C | 100% | 993.5 hPa | - | - | - | - |
| 1777874426 | 10.56° C | 100% | 992.5 hPa | - | - | - | - |
| 1777873525 | 10.56° C | 100% | 992 hPa | - | - | - | - |
| 1777872625 | 10° C | 100% | 990.8 hPa | - | - | - | - |
| 1777871724 | 10° C | 100% | 990.3 hPa | - | - | - | - |
| 1777870823 | 10° C | 100% | 990 hPa | - | - | - | - |
| 1777869923 | 10.56° C | 100% | 991.3 hPa | - | - | - | - |
| 1777869022 | 10.56° C | 100% | 990.5 hPa | - | - | - | - |
| 1777868122 | 10° C | 100% | 989.9 hPa | - | - | - | - |
| 1777867221 | 10° C | 100% | 989.2 hPa | - | - | - | - |
| 1777866333 | 11.11° C | 100% | 992.2 hPa | - | - | - | - |
| 1777865433 | 11.11° C | 100% | 993.6 hPa | - | - | - | - |
| 1777864532 | 11.67° C | 100% | 993.7 hPa | - | - | - | - |
| 1777863632 | 11.67° C | 100% | 994.4 hPa | - | - | - | - |
| 1777862731 | 11.67° C | 100% | 994.7 hPa | - | - | - | - |
| 1777861830 | 12.22° C | 100% | 995.8 hPa | - | - | - | - |
* Rain since midnight (hover to see other rain measurements)
** Current wind speed in m/s (hover to see current wind gust speed)